Torna al catalogo

HULIANWANG DIGUI-138

AttivoComunicazioniLEO
NORAD 67436·PAYLOAD·🇨🇳 China

Lanciato Jan 13, 2026 da Wenchang Space Launch Site

Loading…

Prossimi Passaggi (prossime 24 ore)

TLE

AggiornatoSource: Space-Track

Epoca: Sep 14, 2026, 00:49 UTC

1 67436U 26007B   26257.03468823 -.00000082  00000-0  90108-4 0  9990
2 67436  50.0049 127.3291 0000433 355.8627   4.2241 13.29328741 32601

Traccia HULIANWANG DIGUI-138 in tempo reale con AllMySat

Download on the App Store